owner,sensor,date,latitude,longitude,vertical_datum,wind_speed,wind_to_direction,wind_speed_of_gust,qcFlag 
TCOON,ioos:station:TCOON:524:1,2014-01-01T00:00:00Z,29.8672,-93.9310,0.0,0.3,81.0,0.9,'11111222,11111222,11111222' 
TCOON,ioos:station:TCOON:524:1,2014-01-01T00:06:00Z,29.8672,-93.9310,0.0,0.3,81.0,0.9,'1111122,1111122,1111122' 
TCOON,ioos:station:TCOON:524:1,2014-01-01T00:12:00Z,29.8672,-93.9310,0.0,0.1,39.0,0.7,'11111222,11111222,11111222' 
TCOON,ioos:station:TCOON:524:1,2014-01-01T00:18:00Z,29.8672,-93.9310,0.0,0.5,100.0,0.8,'11111222,11111222,11111222' 
TCOON,ioos:station:TCOON:524:1,2014-01-01T00:24:00Z,29.8672,-93.9310,0.0,0.6,103.0,0.8,'11111222,11111222,11111222' 
TCOON,ioos:station:TCOON:524:1,2014-01-01T00:30:00Z,29.8672,-93.9310,0.0,0.5,66.0,1.2,'11111222,11111222,11111222' 
TCOON,ioos:station:TCOON:524:1,2014-01-01T00:36:00Z,29.8672,-93.9310,0.0,0.5,66.0,1.2,'1111122,1111122,1111122' 
TCOON,ioos:station:TCOON:524:1,2014-01-01T00:42:00Z,29.8672,-93.9310,0.0,0.7,100.0,1.0,'11111222,11111222,11111222' 
TCOON,ioos:station:TCOON:524:1,2014-01-01T00:48:00Z,29.8672,-93.9310,0.0,1.3,135.0,2.2,'11111222,11111222,11111222' 
TCOON,ioos:station:TCOON:524:1,2014-01-01T00:54:00Z,29.8672,-93.9310,0.0,1.2,148.0,2.0,'11111222,11111222,11111222' 
TCOON,ioos:station:TCOON:524:1,2014-01-01T01:00:00Z,29.8672,-93.9310,0.0,1.9,144.0,2.4,'11111222,11111222,11111222' 
TCOON,ioos:station:TCOON:524:1,2014-01-01T01:06:00Z,29.8672,-93.9310,0.0,1.9,144.0,2.4,'1111122,1111122,1111122' 
TCOON,ioos:station:TCOON:524:1,2014-01-01T01:12:00Z,29.8672,-93.9310,0.0,1.5,130.0,3.0,'11111222,11111222,11111222' 
TCOON,ioos:station:TCOON:524:1,2014-01-01T01:18:00Z,29.8672,-93.9310,0.0,1.6,112.0,2.7,'11111222,11111222,11111222' 
TCOON,ioos:station:TCOON:524:1,2014-01-01T01:24:00Z,29.8672,-93.9310,0.0,1.5,109.0,2.2,'11111222,11111222,11111222' 
TCOON,ioos:station:TCOON:524:1,2014-01-01T01:30:00Z,29.8672,-93.9310,0.0,1.9,117.0,2.6,'11111222,11111222,11111222' 
TCOON,ioos:station:TCOON:524:1,2014-01-01T01:36:00Z,29.8672,-93.9310,0.0,1.9,117.0,2.6,'1111122,1111122,1111122' 
TCOON,ioos:station:TCOON:524:1,2014-01-01T01:42:00Z,29.8672,-93.9310,0.0,1.5,120.0,2.3,'11111222,11111222,11111222' 
TCOON,ioos:station:TCOON:524:1,2014-01-01T01:48:00Z,29.8672,-93.9310,0.0,1.7,119.0,2.4,'11111222,11111222,11111222' 
TCOON,ioos:station:TCOON:524:1,2014-01-01T01:54:00Z,29.8672,-93.9310,0.0,2.4,107.0,3.0,'11111222,11111222,11111222' 
TCOON,ioos:station:TCOON:524:1,2014-01-01T02:00:00Z,29.8672,-93.9310,0.0,2.1,104.0,3.4,'11111222,11111222,11111222' 
TCOON,ioos:station:TCOON:524:1,2014-01-01T02:06:00Z,29.8672,-93.9310,0.0,2.1,104.0,3.4,'1111122,1111122,1111122' 
TCOON,ioos:station:TCOON:524:1,2014-01-01T02:12:00Z,29.8672,-93.9310,0.0,1.9,102.0,3.2,'11111222,11111222,11111222' 
TCOON,ioos:station:TCOON:524:1,2014-01-01T02:18:00Z,29.8672,-93.9310,0.0,2.3,96.0,3.4,'11111222,11111222,11111222' 
TCOON,ioos:station:TCOON:524:1,2014-01-01T02:24:00Z,29.8672,-93.9310,0.0,2.3,102.0,3.0,'11111222,11111222,11111222' 
TCOON,ioos:station:TCOON:524:1,2014-01-01T02:30:00Z,29.8672,-93.9310,0.0,2.3,106.0,3.6,'11111222,11111222,11111222' 
TCOON,ioos:station:TCOON:524:1,2014-01-01T02:36:00Z,29.8672,-93.9310,0.0,2.3,106.0,3.6,'1111122,1111122,1111122' 
TCOON,ioos:station:TCOON:524:1,2014-01-01T02:42:00Z,29.8672,-93.9310,0.0,2.9,112.0,3.8,'11111222,11111222,11111222' 
TCOON,ioos:station:TCOON:524:1,2014-01-01T02:48:00Z,29.8672,-93.9310,0.0,3.1,107.0,4.5,'11111222,11111222,11111222' 
TCOON,ioos:station:TCOON:524:1,2014-01-01T02:54:00Z,29.8672,-93.9310,0.0,2.2,87.0,4.0,'11111222,11111222,11111222' 
TCOON,ioos:station:TCOON:524:1,2014-01-01T03:00:00Z,29.8672,-93.9310,0.0,2.2,87.0,4.0,'1111122,1111122,1111122' 
TCOON,ioos:station:TCOON:524:1,2014-01-01T03:06:00Z,29.8672,-93.9310,0.0,2.8,106.0,4.0,'11111222,11111222,11111222' 
TCOON,ioos:station:TCOON:524:1,2014-01-01T03:12:00Z,29.8672,-93.9310,0.0,2.5,103.0,3.9,'11111222,11111222,11111222' 
TCOON,ioos:station:TCOON:524:1,2014-01-01T03:18:00Z,29.8672,-93.9310,0.0,2.2,98.0,3.5,'11111222,11111222,11111222' 
TCOON,ioos:station:TCOON:524:1,2014-01-01T03:24:00Z,29.8672,-93.9310,0.0,2.0,85.0,3.3,'11111222,11111222,11111222' 
TCOON,ioos:station:TCOON:524:1,2014-01-01T03:30:00Z,29.8672,-93.9310,0.0,2.4,99.0,3.9,'11111222,11111222,11111222' 
TCOON,ioos:station:TCOON:524:1,2014-01-01T03:36:00Z,29.8672,-93.9310,0.0,2.4,99.0,3.9,'1111122,1111122,1111122' 
TCOON,ioos:station:TCOON:524:1,2014-01-01T03:42:00Z,29.8672,-93.9310,0.0,2.6,84.0,3.9,'11111222,11111222,11111222' 
TCOON,ioos:station:TCOON:524:1,2014-01-01T03:48:00Z,29.8672,-93.9310,0.0,2.9,96.0,3.8,'11111222,11111222,11111222' 
TCOON,ioos:station:TCOON:524:1,2014-01-01T03:54:00Z,29.8672,-93.9310,0.0,2.6,90.0,3.7,'11111222,11111222,11111222' 
TCOON,ioos:station:TCOON:524:1,2014-01-01T04:00:00Z,29.8672,-93.9310,0.0,2.9,106.0,4.1,'11111222,11111222,11111222' 
TCOON,ioos:station:TCOON:524:1,2014-01-01T04:06:00Z,29.8672,-93.9310,0.0,2.9,106.0,4.1,'1111122,1111122,1111122' 
TCOON,ioos:station:TCOON:524:1,2014-01-01T04:12:00Z,29.8672,-93.9310,0.0,2.8,92.0,4.7,'11111222,11111222,11111222' 
TCOON,ioos:station:TCOON:524:1,2014-01-01T04:18:00Z,29.8672,-93.9310,0.0,2.8,85.0,4.4,'11111222,11111222,11111222' 
TCOON,ioos:station:TCOON:524:1,2014-01-01T04:24:00Z,29.8672,-93.9310,0.0,3.9,98.0,5.5,'11111222,11111222,11111222' 
TCOON,ioos:station:TCOON:524:1,2014-01-01T04:30:00Z,29.8672,-93.9310,0.0,3.7,98.0,5.1,'11111222,11111222,11111222' 
TCOON,ioos:station:TCOON:524:1,2014-01-01T04:36:00Z,29.8672,-93.9310,0.0,3.7,98.0,5.1,'1111122,1111122,1111122' 
TCOON,ioos:station:TCOON:524:1,2014-01-01T04:42:00Z,29.8672,-93.9310,0.0,3.1,103.0,4.5,'11111222,11111222,11111222' 
TCOON,ioos:station:TCOON:524:1,2014-01-01T04:48:00Z,29.8672,-93.9310,0.0,3.1,101.0,4.8,'11111222,11111222,11111222' 
TCOON,ioos:station:TCOON:524:1,2014-01-01T04:54:00Z,29.8672,-93.9310,0.0,4.4,103.0,5.2,'11111222,11111222,11111222' 
TCOON,ioos:station:TCOON:524:1,2014-01-01T05:00:00Z,29.8672,-93.9310,0.0,3.8,102.0,5.3,'11111222,11111222,11111222' 
TCOON,ioos:station:TCOON:524:1,2014-01-01T05:06:00Z,29.8672,-93.9310,0.0,3.8,102.0,5.3,'1111122,1111122,1111122' 
TCOON,ioos:station:TCOON:524:1,2014-01-01T05:12:00Z,29.8672,-93.9310,0.0,3.9,101.0,5.7,'11111222,11111222,11111222' 
TCOON,ioos:station:TCOON:524:1,2014-01-01T05:18:00Z,29.8672,-93.9310,0.0,4.5,106.0,6.1,'11111222,11111222,11111222' 
TCOON,ioos:station:TCOON:524:1,2014-01-01T05:24:00Z,29.8672,-93.9310,0.0,3.5,106.0,5.6,'11111222,11111222,11111222' 
TCOON,ioos:station:TCOON:524:1,2014-01-01T05:30:00Z,29.8672,-93.9310,0.0,4.0,108.0,4.9,'11111222,11111222,11111222' 
TCOON,ioos:station:TCOON:524:1,2014-01-01T05:36:00Z,29.8672,-93.9310,0.0,4.0,108.0,4.9,'1111122,1111122,1111122' 
TCOON,ioos:station:TCOON:524:1,2014-01-01T05:42:00Z,29.8672,-93.9310,0.0,3.5,101.0,4.6,'11111222,11111222,11111222' 
TCOON,ioos:station:TCOON:524:1,2014-01-01T05:48:00Z,29.8672,-93.9310,0.0,3.8,105.0,4.7,'11111222,11111222,11111222' 
TCOON,ioos:station:TCOON:524:1,2014-01-01T05:54:00Z,29.8672,-93.9310,0.0,2.6,97.0,4.3,'11111222,11111222,11111222' 
TCOON,ioos:station:TCOON:524:1,2014-01-01T06:00:00Z,29.8672,-93.9310,0.0,2.5,100.0,4.0,'11111222,11111222,11111222' 
TCOON,ioos:station:TCOON:524:1,2014-01-01T06:06:00Z,29.8672,-93.9310,0.0,2.5,100.0,4.0,'1111122,1111122,1111122' 
TCOON,ioos:station:TCOON:524:1,2014-01-01T06:12:00Z,29.8672,-93.9310,0.0,3.7,106.0,5.2,'11111222,11111222,11111222' 
TCOON,ioos:station:TCOON:524:1,2014-01-01T06:18:00Z,29.8672,-93.9310,0.0,4.3,104.0,5.7,'11111222,11111222,11111222' 
TCOON,ioos:station:TCOON:524:1,2014-01-01T06:24:00Z,29.8672,-93.9310,0.0,3.7,112.0,5.0,'11111222,11111222,11111222' 
TCOON,ioos:station:TCOON:524:1,2014-01-01T06:30:00Z,29.8672,-93.9310,0.0,2.7,113.0,4.9,'11111222,11111222,11111222' 
TCOON,ioos:station:TCOON:524:1,2014-01-01T06:36:00Z,29.8672,-93.9310,0.0,2.7,113.0,4.9,'1111122,1111122,1111122' 
TCOON,ioos:station:TCOON:524:1,2014-01-01T06:42:00Z,29.8672,-93.9310,0.0,2.8,115.0,4.7,'11111222,11111222,11111222' 
TCOON,ioos:station:TCOON:524:1,2014-01-01T06:48:00Z,29.8672,-93.9310,0.0,3.1,114.0,5.0,'11111222,11111222,11111222' 
TCOON,ioos:station:TCOON:524:1,2014-01-01T06:54:00Z,29.8672,-93.9310,0.0,2.8,108.0,4.0,'11111222,11111222,11111222' 
TCOON,ioos:station:TCOON:524:1,2014-01-01T07:00:00Z,29.8672,-93.9310,0.0,1.8,111.0,3.1,'11111222,11111222,11111222' 
TCOON,ioos:station:TCOON:524:1,2014-01-01T07:06:00Z,29.8672,-93.9310,0.0,1.8,111.0,3.1,'1111122,1111122,1111122' 
TCOON,ioos:station:TCOON:524:1,2014-01-01T07:12:00Z,29.8672,-93.9310,0.0,2.8,116.0,4.2,'11111222,11111222,11111222' 
TCOON,ioos:station:TCOON:524:1,2014-01-01T07:18:00Z,29.8672,-93.9310,0.0,2.3,108.0,3.3,'11111222,11111222,11111222' 
TCOON,ioos:station:TCOON:524:1,2014-01-01T07:24:00Z,29.8672,-93.9310,0.0,1.9,100.0,3.3,'11111222,11111222,11111222' 
TCOON,ioos:station:TCOON:524:1,2014-01-01T07:30:00Z,29.8672,-93.9310,0.0,1.9,101.0,2.9,'11111222,11111222,11111222' 
TCOON,ioos:station:TCOON:524:1,2014-01-01T07:36:00Z,29.8672,-93.9310,0.0,1.9,101.0,2.9,'1111122,1111122,1111122' 
TCOON,ioos:station:TCOON:524:1,2014-01-01T07:42:00Z,29.8672,-93.9310,0.0,2.3,107.0,3.0,'11111222,11111222,11111222' 
TCOON,ioos:station:TCOON:524:1,2014-01-01T07:48:00Z,29.8672,-93.9310,0.0,2.2,110.0,3.4,'11111222,11111222,11111222' 
TCOON,ioos:station:TCOON:524:1,2014-01-01T07:54:00Z,29.8672,-93.9310,0.0,3.0,105.0,3.5,'11111222,11111222,11111222' 
TCOON,ioos:station:TCOON:524:1,2014-01-01T08:00:00Z,29.8672,-93.9310,0.0,2.5,102.0,3.6,'11111222,11111222,11111222' 
TCOON,ioos:station:TCOON:524:1,2014-01-01T08:06:00Z,29.8672,-93.9310,0.0,2.5,102.0,3.6,'1111122,1111122,1111122' 
TCOON,ioos:station:TCOON:524:1,2014-01-01T08:12:00Z,29.8672,-93.9310,0.0,1.9,94.0,2.9,'11111222,11111222,11111222' 
TCOON,ioos:station:TCOON:524:1,2014-01-01T08:18:00Z,29.8672,-93.9310,0.0,1.9,82.0,3.1,'11111222,11111222,11111222' 
TCOON,ioos:station:TCOON:524:1,2014-01-01T08:24:00Z,29.8672,-93.9310,0.0,2.0,84.0,2.6,'11111222,11111222,11111222' 
TCOON,ioos:station:TCOON:524:1,2014-01-01T08:30:00Z,29.8672,-93.9310,0.0,1.9,76.0,2.3,'11111222,11111222,11111222' 
TCOON,ioos:station:TCOON:524:1,2014-01-01T08:36:00Z,29.8672,-93.9310,0.0,1.9,76.0,2.3,'1111122,1111122,1111122' 
TCOON,ioos:station:TCOON:524:1,2014-01-01T08:42:00Z,29.8672,-93.9310,0.0,1.4,70.0,2.2,'11111222,11111222,11111222' 
TCOON,ioos:station:TCOON:524:1,2014-01-01T08:48:00Z,29.8672,-93.9310,0.0,2.3,79.0,3.1,'11111222,11111222,11111222' 
TCOON,ioos:station:TCOON:524:1,2014-01-01T08:54:00Z,29.8672,-93.9310,0.0,1.4,82.0,2.8,'11111222,11111222,11111222' 
TCOON,ioos:station:TCOON:524:1,2014-01-01T09:00:00Z,29.8672,-93.9310,0.0,2.1,85.0,3.2,'11111222,11111222,11111222' 
TCOON,ioos:station:TCOON:524:1,2014-01-01T09:06:00Z,29.8672,-93.9310,0.0,2.1,85.0,3.2,'1111122,1111122,1111122' 
TCOON,ioos:station:TCOON:524:1,2014-01-01T09:12:00Z,29.8672,-93.9310,0.0,2.1,89.0,3.3,'11111222,11111222,11111222' 
TCOON,ioos:station:TCOON:524:1,2014-01-01T09:18:00Z,29.8672,-93.9310,0.0,1.9,99.0,3.1,'11111222,11111222,11111222' 
TCOON,ioos:station:TCOON:524:1,2014-01-01T09:24:00Z,29.8672,-93.9310,0.0,2.0,80.0,3.4,'11111222,11111222,11111222' 
TCOON,ioos:station:TCOON:524:1,2014-01-01T09:30:00Z,29.8672,-93.9310,0.0,2.2,93.0,3.2,'11111222,11111222,11111222' 
TCOON,ioos:station:TCOON:524:1,2014-01-01T09:36:00Z,29.8672,-93.9310,0.0,2.2,93.0,3.2,'1111122,1111122,1111122' 
TCOON,ioos:station:TCOON:524:1,2014-01-01T09:42:00Z,29.8672,-93.9310,0.0,2.4,92.0,3.5,'11111222,11111222,11111222' 
TCOON,ioos:station:TCOON:524:1,2014-01-01T09:48:00Z,29.8672,-93.9310,0.0,2.4,91.0,4.2,'11111222,11111222,11111222' 
TCOON,ioos:station:TCOON:524:1,2014-01-01T09:54:00Z,29.8672,-93.9310,0.0,2.7,95.0,4.1,'11111222,11111222,11111222' 
TCOON,ioos:station:TCOON:524:1,2014-01-01T10:00:00Z,29.8672,-93.9310,0.0,2.5,100.0,3.5,'11111222,11111222,11111222' 
TCOON,ioos:station:TCOON:524:1,2014-01-01T10:06:00Z,29.8672,-93.9310,0.0,2.5,100.0,3.5,'1111122,1111122,1111122' 
TCOON,ioos:station:TCOON:524:1,2014-01-01T10:12:00Z,29.8672,-93.9310,0.0,1.7,89.0,2.8,'11111222,11111222,11111222' 
TCOON,ioos:station:TCOON:524:1,2014-01-01T10:18:00Z,29.8672,-93.9310,0.0,2.2,94.0,2.9,'11111222,11111222,11111222' 
TCOON,ioos:station:TCOON:524:1,2014-01-01T10:24:00Z,29.8672,-93.9310,0.0,1.4,107.0,2.9,'11111222,11111222,11111222' 
TCOON,ioos:station:TCOON:524:1,2014-01-01T10:30:00Z,29.8672,-93.9310,0.0,2.0,113.0,2.9,'11111222,11111222,11111222' 
TCOON,ioos:station:TCOON:524:1,2014-01-01T10:36:00Z,29.8672,-93.9310,0.0,2.0,113.0,2.9,'1111122,1111122,1111122' 
TCOON,ioos:station:TCOON:524:1,2014-01-01T10:42:00Z,29.8672,-93.9310,0.0,2.1,101.0,2.9,'11111222,11111222,11111222' 
TCOON,ioos:station:TCOON:524:1,2014-01-01T10:48:00Z,29.8672,-93.9310,0.0,2.0,102.0,3.0,'11111222,11111222,11111222' 
TCOON,ioos:station:TCOON:524:1,2014-01-01T10:54:00Z,29.8672,-93.9310,0.0,1.6,91.0,3.1,'11111222,11111222,11111222' 
TCOON,ioos:station:TCOON:524:1,2014-01-01T11:00:00Z,29.8672,-93.9310,0.0,1.9,98.0,2.8,'11111222,11111222,11111222' 
TCOON,ioos:station:TCOON:524:1,2014-01-01T11:06:00Z,29.8672,-93.9310,0.0,1.9,98.0,2.8,'1111122,1111122,1111122' 
TCOON,ioos:station:TCOON:524:1,2014-01-01T11:12:00Z,29.8672,-93.9310,0.0,2.0,65.0,2.7,'11111222,11111222,11111222' 
TCOON,ioos:station:TCOON:524:1,2014-01-01T11:18:00Z,29.8672,-93.9310,0.0,1.6,66.0,2.4,'11111222,11111222,11111222' 
TCOON,ioos:station:TCOON:524:1,2014-01-01T11:24:00Z,29.8672,-93.9310,0.0,1.7,62.0,2.9,'11111222,11111222,11111222' 
TCOON,ioos:station:TCOON:524:1,2014-01-01T11:30:00Z,29.8672,-93.9310,0.0,1.0,43.0,2.9,'11111222,11111222,11111222' 
TCOON,ioos:station:TCOON:524:1,2014-01-01T11:36:00Z,29.8672,-93.9310,0.0,1.0,43.0,2.9,'1111122,1111122,1111122' 
TCOON,ioos:station:TCOON:524:1,2014-01-01T11:42:00Z,29.8672,-93.9310,0.0,0.9,37.0,1.9,'11111222,11111222,11111222' 
TCOON,ioos:station:TCOON:524:1,2014-01-01T11:48:00Z,29.8672,-93.9310,0.0,1.0,40.0,2.0,'11111222,11111222,11111222' 
TCOON,ioos:station:TCOON:524:1,2014-01-01T11:54:00Z,29.8672,-93.9310,0.0,0.9,49.0,2.2,'11111222,11111222,11111222' 
TCOON,ioos:station:TCOON:524:1,2014-01-01T12:00:00Z,29.8672,-93.9310,0.0,0.9,33.0,2.1,'11111222,11111222,11111222' 
TCOON,ioos:station:TCOON:524:1,2014-01-01T12:06:00Z,29.8672,-93.9310,0.0,0.9,33.0,2.1,'1111122,1111122,1111122' 
TCOON,ioos:station:TCOON:524:1,2014-01-01T12:12:00Z,29.8672,-93.9310,0.0,1.3,47.0,2.7,'11111222,11111222,11111222' 
TCOON,ioos:station:TCOON:524:1,2014-01-01T12:18:00Z,29.8672,-93.9310,0.0,0.9,44.0,1.8,'11111222,11111222,11111222' 
TCOON,ioos:station:TCOON:524:1,2014-01-01T12:24:00Z,29.8672,-93.9310,0.0,1.2,50.0,2.6,'11111222,11111222,11111222' 
TCOON,ioos:station:TCOON:524:1,2014-01-01T12:30:00Z,29.8672,-93.9310,0.0,0.9,36.0,2.3,'11111222,11111222,11111222' 
TCOON,ioos:station:TCOON:524:1,2014-01-01T12:36:00Z,29.8672,-93.9310,0.0,0.9,36.0,2.3,'1111122,1111122,1111122' 
TCOON,ioos:station:TCOON:524:1,2014-01-01T12:42:00Z,29.8672,-93.9310,0.0,1.4,53.0,2.2,'11111222,11111222,11111222' 
TCOON,ioos:station:TCOON:524:1,2014-01-01T12:48:00Z,29.8672,-93.9310,0.0,0.7,46.0,2.7,'11111222,11111222,11111222' 
TCOON,ioos:station:TCOON:524:1,2014-01-01T12:54:00Z,29.8672,-93.9310,0.0,1.1,40.0,2.1,'11111222,11111222,11111222' 
TCOON,ioos:station:TCOON:524:1,2014-01-01T13:00:00Z,29.8672,-93.9310,0.0,1.2,52.0,2.6,'11111222,11111222,11111222' 
TCOON,ioos:station:TCOON:524:1,2014-01-01T13:06:00Z,29.8672,-93.9310,0.0,1.2,52.0,2.6,'1111122,1111122,1111122' 
TCOON,ioos:station:TCOON:524:1,2014-01-01T13:12:00Z,29.8672,-93.9310,0.0,2.2,73.0,3.3,'11111222,11111222,11111222' 
TCOON,ioos:station:TCOON:524:1,2014-01-01T13:18:00Z,29.8672,-93.9310,0.0,3.1,67.0,4.6,'11111222,11111222,11111222' 
TCOON,ioos:station:TCOON:524:1,2014-01-01T13:24:00Z,29.8672,-93.9310,0.0,2.7,75.0,4.6,'11111222,11111222,11111222' 
TCOON,ioos:station:TCOON:524:1,2014-01-01T13:30:00Z,29.8672,-93.9310,0.0,2.4,74.0,3.6,'11111222,11111222,11111222' 
TCOON,ioos:station:TCOON:524:1,2014-01-01T13:36:00Z,29.8672,-93.9310,0.0,2.4,74.0,3.6,'1111122,1111122,1111122' 
TCOON,ioos:station:TCOON:524:1,2014-01-01T13:42:00Z,29.8672,-93.9310,0.0,3.1,74.0,4.5,'11111222,11111222,11111222' 
TCOON,ioos:station:TCOON:524:1,2014-01-01T13:48:00Z,29.8672,-93.9310,0.0,2.6,88.0,3.7,'11111222,11111222,11111222' 
TCOON,ioos:station:TCOON:524:1,2014-01-01T13:54:00Z,29.8672,-93.9310,0.0,2.9,86.0,4.5,'11111222,11111222,11111222' 
TCOON,ioos:station:TCOON:524:1,2014-01-01T14:00:00Z,29.8672,-93.9310,0.0,2.4,91.0,4.0,'11111222,11111222,11111222' 
TCOON,ioos:station:TCOON:524:1,2014-01-01T14:06:00Z,29.8672,-93.9310,0.0,2.4,91.0,4.0,'1111122,1111122,1111122' 
TCOON,ioos:station:TCOON:524:1,2014-01-01T14:12:00Z,29.8672,-93.9310,0.0,3.2,82.0,4.6,'11111222,11111222,11111222' 
TCOON,ioos:station:TCOON:524:1,2014-01-01T14:18:00Z,29.8672,-93.9310,0.0,3.1,98.0,4.0,'11111222,11111222,11111222' 
TCOON,ioos:station:TCOON:524:1,2014-01-01T14:24:00Z,29.8672,-93.9310,0.0,2.4,96.0,3.6,'11111222,11111222,11111222' 
TCOON,ioos:station:TCOON:524:1,2014-01-01T14:30:00Z,29.8672,-93.9310,0.0,2.6,83.0,3.2,'11111222,11111222,11111222' 
TCOON,ioos:station:TCOON:524:1,2014-01-01T14:36:00Z,29.8672,-93.9310,0.0,2.6,83.0,3.2,'1111122,1111122,1111122' 
TCOON,ioos:station:TCOON:524:1,2014-01-01T14:42:00Z,29.8672,-93.9310,0.0,2.3,76.0,3.4,'11111222,11111222,11111222' 
TCOON,ioos:station:TCOON:524:1,2014-01-01T14:48:00Z,29.8672,-93.9310,0.0,1.9,72.0,3.3,'11111222,11111222,11111222' 
TCOON,ioos:station:TCOON:524:1,2014-01-01T14:54:00Z,29.8672,-93.9310,0.0,2.0,82.0,3.1,'11111222,11111222,11111222' 
TCOON,ioos:station:TCOON:524:1,2014-01-01T15:00:00Z,29.8672,-93.9310,0.0,1.9,71.0,2.7,'11111222,11111222,11111222' 
TCOON,ioos:station:TCOON:524:1,2014-01-01T15:06:00Z,29.8672,-93.9310,0.0,1.9,71.0,2.7,'1111122,1111122,1111122' 
TCOON,ioos:station:TCOON:524:1,2014-01-01T15:12:00Z,29.8672,-93.9310,0.0,1.5,70.0,2.7,'11111222,11111222,11111222' 
TCOON,ioos:station:TCOON:524:1,2014-01-01T15:18:00Z,29.8672,-93.9310,0.0,1.0,49.0,2.6,'11111222,11111222,11111222' 
TCOON,ioos:station:TCOON:524:1,2014-01-01T15:24:00Z,29.8672,-93.9310,0.0,1.9,63.0,3.3,'11111222,11111222,11111222' 
TCOON,ioos:station:TCOON:524:1,2014-01-01T15:30:00Z,29.8672,-93.9310,0.0,1.7,66.0,2.7,'11111222,11111222,11111222' 
TCOON,ioos:station:TCOON:524:1,2014-01-01T15:36:00Z,29.8672,-93.9310,0.0,1.7,66.0,2.7,'1111122,1111122,1111122' 
TCOON,ioos:station:TCOON:524:1,2014-01-01T15:42:00Z,29.8672,-93.9310,0.0,1.5,55.0,2.3,'11111222,11111222,11111222' 
TCOON,ioos:station:TCOON:524:1,2014-01-01T15:48:00Z,29.8672,-93.9310,0.0,2.3,63.0,3.2,'11111222,11111222,11111222' 
TCOON,ioos:station:TCOON:524:1,2014-01-01T15:54:00Z,29.8672,-93.9310,0.0,2.3,84.0,3.5,'11111222,11111222,11111222' 
TCOON,ioos:station:TCOON:524:1,2014-01-01T16:00:00Z,29.8672,-93.9310,0.0,2.5,78.0,3.5,'11111222,11111222,11111222' 
TCOON,ioos:station:TCOON:524:1,2014-01-01T16:06:00Z,29.8672,-93.9310,0.0,2.5,78.0,3.5,'1111122,1111122,1111122' 
TCOON,ioos:station:TCOON:524:1,2014-01-01T16:12:00Z,29.8672,-93.9310,0.0,2.4,75.0,3.2,'11111222,11111222,11111222' 
TCOON,ioos:station:TCOON:524:1,2014-01-01T16:18:00Z,29.8672,-93.9310,0.0,2.3,68.0,3.7,'11111222,11111222,11111222' 
TCOON,ioos:station:TCOON:524:1,2014-01-01T16:24:00Z,29.8672,-93.9310,0.0,2.4,63.0,4.1,'11111222,11111222,11111222' 
TCOON,ioos:station:TCOON:524:1,2014-01-01T16:30:00Z,29.8672,-93.9310,0.0,2.4,70.0,3.6,'11111222,11111222,11111222' 
TCOON,ioos:station:TCOON:524:1,2014-01-01T16:36:00Z,29.8672,-93.9310,0.0,2.4,70.0,3.6,'1111122,1111122,1111122' 
TCOON,ioos:station:TCOON:524:1,2014-01-01T16:42:00Z,29.8672,-93.9310,0.0,2.7,77.0,3.8,'11111222,11111222,11111222' 
TCOON,ioos:station:TCOON:524:1,2014-01-01T16:48:00Z,29.8672,-93.9310,0.0,2.3,65.0,3.8,'11111222,11111222,11111222' 
TCOON,ioos:station:TCOON:524:1,2014-01-01T16:54:00Z,29.8672,-93.9310,0.0,2.5,71.0,3.9,'11111222,11111222,11111222' 
TCOON,ioos:station:TCOON:524:1,2014-01-01T17:00:00Z,29.8672,-93.9310,0.0,2.2,61.0,3.9,'11111222,11111222,11111222' 
TCOON,ioos:station:TCOON:524:1,2014-01-01T17:06:00Z,29.8672,-93.9310,0.0,2.2,61.0,3.9,'1111122,1111122,1111122' 
TCOON,ioos:station:TCOON:524:1,2014-01-01T17:12:00Z,29.8672,-93.9310,0.0,2.5,71.0,3.7,'11111222,11111222,11111222' 
TCOON,ioos:station:TCOON:524:1,2014-01-01T17:18:00Z,29.8672,-93.9310,0.0,1.4,63.0,3.3,'11111222,11111222,11111222' 
TCOON,ioos:station:TCOON:524:1,2014-01-01T17:24:00Z,29.8672,-93.9310,0.0,2.4,63.0,3.4,'11111222,11111222,11111222' 
TCOON,ioos:station:TCOON:524:1,2014-01-01T17:30:00Z,29.8672,-93.9310,0.0,2.1,59.0,3.1,'11111222,11111222,11111222' 
TCOON,ioos:station:TCOON:524:1,2014-01-01T17:36:00Z,29.8672,-93.9310,0.0,2.1,59.0,3.1,'1111122,1111122,1111122' 
TCOON,ioos:station:TCOON:524:1,2014-01-01T17:42:00Z,29.8672,-93.9310,0.0,2.1,64.0,3.2,'11111222,11111222,11111222' 
TCOON,ioos:station:TCOON:524:1,2014-01-01T17:48:00Z,29.8672,-93.9310,0.0,2.9,63.0,3.8,'11111222,11111222,11111222' 
TCOON,ioos:station:TCOON:524:1,2014-01-01T17:54:00Z,29.8672,-93.9310,0.0,2.2,61.0,2.9,'11111222,11111222,11111222' 
TCOON,ioos:station:TCOON:524:1,2014-01-01T18:00:00Z,29.8672,-93.9310,0.0,1.9,62.0,3.4,'11111222,11111222,11111222' 
TCOON,ioos:station:TCOON:524:1,2014-01-01T18:06:00Z,29.8672,-93.9310,0.0,1.9,62.0,3.4,'1111122,1111122,1111122' 
TCOON,ioos:station:TCOON:524:1,2014-01-01T18:12:00Z,29.8672,-93.9310,0.0,2.5,70.0,3.4,'11111222,11111222,11111222' 
TCOON,ioos:station:TCOON:524:1,2014-01-01T18:18:00Z,29.8672,-93.9310,0.0,2.2,81.0,3.1,'11111222,11111222,11111222' 
TCOON,ioos:station:TCOON:524:1,2014-01-01T18:24:00Z,29.8672,-93.9310,0.0,2.0,69.0,2.8,'11111222,11111222,11111222' 
TCOON,ioos:station:TCOON:524:1,2014-01-01T18:30:00Z,29.8672,-93.9310,0.0,2.3,59.0,3.7,'11111222,11111222,11111222' 
TCOON,ioos:station:TCOON:524:1,2014-01-01T18:36:00Z,29.8672,-93.9310,0.0,2.3,59.0,3.7,'1111122,1111122,1111122' 
TCOON,ioos:station:TCOON:524:1,2014-01-01T18:42:00Z,29.8672,-93.9310,0.0,1.9,77.0,3.1,'11111222,11111222,11111222' 
TCOON,ioos:station:TCOON:524:1,2014-01-01T18:48:00Z,29.8672,-93.9310,0.0,1.9,75.0,2.9,'11111222,11111222,11111222' 
TCOON,ioos:station:TCOON:524:1,2014-01-01T18:54:00Z,29.8672,-93.9310,0.0,1.5,61.0,2.8,'11111222,11111222,11111222' 
TCOON,ioos:station:TCOON:524:1,2014-01-01T19:00:00Z,29.8672,-93.9310,0.0,1.9,65.0,2.8,'11111222,11111222,11111222' 
TCOON,ioos:station:TCOON:524:1,2014-01-01T19:06:00Z,29.8672,-93.9310,0.0,1.9,65.0,2.8,'1111122,1111122,1111122' 
TCOON,ioos:station:TCOON:524:1,2014-01-01T19:12:00Z,29.8672,-93.9310,0.0,1.5,67.0,2.3,'11111222,11111222,11111222' 
TCOON,ioos:station:TCOON:524:1,2014-01-01T19:18:00Z,29.8672,-93.9310,0.0,1.6,71.0,2.5,'11111222,11111222,11111222' 
TCOON,ioos:station:TCOON:524:1,2014-01-01T19:24:00Z,29.8672,-93.9310,0.0,1.5,69.0,2.7,'11111222,11111222,11111222' 
TCOON,ioos:station:TCOON:524:1,2014-01-01T19:30:00Z,29.8672,-93.9310,0.0,1.4,70.0,1.9,'11111222,11111222,11111222' 
TCOON,ioos:station:TCOON:524:1,2014-01-01T19:36:00Z,29.8672,-93.9310,0.0,1.4,70.0,1.9,'1111122,1111122,1111122' 
TCOON,ioos:station:TCOON:524:1,2014-01-01T19:42:00Z,29.8672,-93.9310,0.0,1.4,81.0,2.1,'11111222,11111222,11111222' 
TCOON,ioos:station:TCOON:524:1,2014-01-01T19:48:00Z,29.8672,-93.9310,0.0,1.7,85.0,2.0,'11111222,11111222,11111222' 
TCOON,ioos:station:TCOON:524:1,2014-01-01T19:54:00Z,29.8672,-93.9310,0.0,1.5,80.0,2.2,'11111222,11111222,11111222' 
TCOON,ioos:station:TCOON:524:1,2014-01-01T20:00:00Z,29.8672,-93.9310,0.0,1.4,86.0,2.2,'11111222,11111222,11111222' 
TCOON,ioos:station:TCOON:524:1,2014-01-01T20:06:00Z,29.8672,-93.9310,0.0,1.4,86.0,2.2,'1111122,1111122,1111122' 
TCOON,ioos:station:TCOON:524:1,2014-01-01T20:12:00Z,29.8672,-93.9310,0.0,1.3,93.0,1.9,'11111222,11111222,11111222' 
TCOON,ioos:station:TCOON:524:1,2014-01-01T20:18:00Z,29.8672,-93.9310,0.0,1.2,68.0,1.6,'11111222,11111222,11111222' 
TCOON,ioos:station:TCOON:524:1,2014-01-01T20:24:00Z,29.8672,-93.9310,0.0,1.1,83.0,1.4,'11111222,11111222,11111222' 
TCOON,ioos:station:TCOON:524:1,2014-01-01T20:30:00Z,29.8672,-93.9310,0.0,1.3,93.0,1.7,'11111222,11111222,11111222' 